Showing default

FLOCK 4BE 23, 60490

Orbit data source: Space-Track

FLOCK 4BE 23, 60490 is a payload satellite owned by Planet (US) in SSO that was launched on Fri, 16 Aug 2024 UTC via an FALCON 9 launch vehicle from the Air Force Western Test Range (AFWTR). Payload-class satellites include a variety of spacecraft equipped with specific instruments for various scientific and technological missions. These include communications satellites like Starlink; space stations such as the ISS; scientific satellites like the Hubble; Earth observation satellites from companies like Planet Labs, Umbra, and HawkEye 360; GPS; miniature CubeSats for education and research; and military/defense satellites.

Loading next visibility...
Identifier
60490, 2024-149Y
Orbit
SSO
Country
Flag of USUS
Related business
Manufacturer
Planet
Mission
Operational Commercial Imaging
Bus & Motor
CUBESAT 3U, Unknown motor
Mass
5.7 kg wet, 5.7 kg dry
Launch date (UTC)
2024-08-16 (2 years ago)
Launch vehicle
FALCON 9
Launch site
Air Force Western Test Range (AFWTR)
Object type
Payload
Rocket body
Debris
Shape & HBR
Box + 2 Pan, 1.0 m
Radar Cross Section
0.072 m², Medium (>0.1 m² and < 1m²)

Expand to show TLE details & history
Last TLE update: 12 hours ago

TLE from 12 hours ago
0 FLOCK 4BE 23
1 60490U 24149Y   26111.98441049  .00012204  00000-0  34790-3 0  9994
2 60490  97.3779 194.1843 0005131 116.9125 243.2644 15.36203970 93562
Epoch: 2026-04-21T23:37Z
TLE epoch observation values (Epoch: 2026-04-21T23:37:33.066Z)
Latitude
0.00001°
Longitude
-10.25583°
Altitude
462.039 km
Speed
7.635 km/s
True Right ascension
12h 56m 44s
True Declination
0° 00' 00"
Sunlit
Object was in full shadow at epoch
Visualization orbit readout
Latitude
Unknown
Longitude
Unknown
Altitude
Unknown
Speed
Unknown
Apparent Right ascension
Unknown
Apparent Declination
Unknown
Sunlit
N/A
Visualization observer readout
Local Sidereal Time
18:23:41
Azimuth
Unknown
Elevation
Unknown
Doppler factor
Unknown
Orbital elements
Apogee altitude
457.795 km
Perigee altitude
450.784 km
Semi-major axis
6,832.427 km
Eccentricity
0.00051
Inclination
97.3779°
RAAN
194.1843°
Arg. of periapsis
116.9125°
True anomaly
243.2119°
Mean anomaly
243.2644°
Eccentric anomaly
243.23815°
Mean motion
3.84309 °/min
Orbital period
93.67 mins
BSTAR
0.0003479
Loading maneuver chart data...
Computing Atmospheric mass density...
Loading historical data...
Loading historical data...
Loading historical data...
Loading historical data...
Loading historical data...
Loading historical data...
Loading historical data...

Documentation

Showing up to 5 results
|